Погода в Шпалозаводе

Россия / Томская область     58°55′55″N   81°33′20″E
темп.,
°C
ветер,
м/с
пор.,
м/с
влажн.,
%
обл.,
%
осадки,
мм/ч
давл.,
гПа
погр.,
м
30 июня, чт
чт3001:00+16вюв91887100 1.5 990709
04:00+15вюв91594100 0.4 988479
07:00+13юз8109293 4.6 988528
10:00+12ю91281100 0.2 990981
13:00+15ююв11125543 0.3 9911734
16:00+11ююв91380100 0.3 9931341
19:00+10ююв91491100 1.1 993817
22:00+9ююв81293100 0.5 993729
1 июля, пт
пт101:00+9ююв71193100 0.5 994594
04:00+8ююв61095100 0.3 993559
07:00+9ю5897100 1.3 994448
10:00+9ююз5895100 1.5 995474
13:00+10ююз6892100 2.3 996536
16:00+13зюз5680100 1.1 997894
19:00+13зсз457567 2.1 997854
22:00+11сз3487100 0.6 99873
2 июля, сб
сб201:00+9зсз4696100 2.1 999214
04:00+9зсз5898100 0.2 999260
07:00+9зсз5897100 0.4 1000304
10:00+13сз677773 0.0 1001921
13:00+16зсз676275 0.4 10021383
16:00+16зсз776542 0.3 10031200
19:00+17зсз57687 1.1 10041183
22:00+14зсз488898 0.4 1004161
3 июля, вс
вс301:00+11зсз4792100 0.4 100599
04:00+11з4690100 0.0 1005122
07:00+12з3689100 0.0 1006177
10:00+15з4469100 0.0 1006486
13:00+19зсз345181 0.1 10061705
16:00+19зюз4447100 0.0 10061443
19:00+20юз124962 0.0 10061346
22:00+15ю446969 0.0 100541
4 июля, пн
пн401:00+15ю3466100 0.0 100548
04:00+14ю3374100 0.0 100444
07:00+14ю2377100 0.0 100466
10:00+17юв116568 0.0 1003410
13:00+21св22516 0.0 10021486
16:00+21с2355100 0.1 10011206
19:00+17всв3472100 0.4 100156
22:00+17св347582 0.1 100158